Volver al catálogo

FENGYUN 1C DEB

ActivoPO
NORAD 32185·DEBRIS·🇨🇳 China

Lanzado May 10, 1999 desde Taiyuan Satellite Launch Center

Loading…

Próximos Pases (próximas 24 horas)

TLE

ActualizadoSource: Space-Track

Época: Sep 11, 2026, 22:40 UTC

1 32185U 99025CUF 26254.94496553  .00384062  00000-0  36493-2 0  9998
2 32185  98.8550 158.0822 0048416 159.2410 201.0825 15.64224715991854

Sigue FENGYUN 1C DEB en tiempo real con AllMySat

Download on the App Store